sat.trackr.live / text

‹ back to catalog

KUIPER-00198

NORAD 67770 · 2026-030G

PAYLOAD ACTIVE UNKNOWN

§ Identity

Operator
Country
US
Launch date
2026-02-12
Launch site
FRGUI
Launch vehicle
Mass (kg)
RCS (m²)

External: N2YO · Heavens-Above · Gunter

§ Orbital elements

Epoch: 2026-09-20T14:09:54.707328Z

Period
97.30 min
Inclination
51.9007°
Eccentricity
0.0000845
Mean motion
14.79930603 rev/d
Perigee alt
629.0 km
Apogee alt
630.1 km
Semi-major
7,007.7 km
B*
3.3532e-5
RAAN
58.7389°
Arg perigee
111.0026°
Mean anomaly
249.1027°
Rev number
3,421

§ Raw data

KUIPER-001981 67770U 26030G   26263.59021652  .00000034  00000+0  33532-4 0  99932 67770  51.9007  58.7389 0000845 111.0026 249.1027 14.79930603 34216

JSON: /api/v1/satellites/67770 · /tle

For live sub-satellite position, see the globe view (requires WebGL).

§ Visibility from observer

Set your observer location to see the next 7 days of passes ≥ 10°. The values pass through the URL so the page stays shareable.

No JS? Fill the form by hand. The geolocation button needs JavaScript.